Regional Weather Roundup
Issued by NWS

Home | Current Version | Previous Version | Text Only | Print | Product List | Glossary Off
Versions: 1 2 3 4 5 6 7 8 9 10 11 12 13 14 15 16 17 18 19 20 21 22 23 24 25 26 27 28 29 30 31 32 33 34 35 36 37 38 39 40 41 42 43 44 45 46 47 48 49 50

000
ASUS43 KDMX 291407
RWRIA

WEATHER ROUNDUP FOR IOWA
NATIONAL WEATHER SERVICE DES MOINES IA
800 AM CST THU JAN 29 2015

NOTE: "FAIR" INDICATES FEW OR NO CLOUDS BELOW 12,000 FEET WITH NO
SIGNIFICANT WEATHER AND/OR OBSTRUCTIONS TO VISIBILITY.

* - THESE STATIONS ARE NOT NWS STATIONS...THUS NOT UNDER NWS
QUALITY CONTROL.  THEY ALSO DO NOT REPORT WEATHER SUCH
AS PRECIPITATION OR FOG.

IAZ001>003-012>014-020>022-031>034-043>046-291500-
   NORTHWEST IOWA

CITY           SKY/WX    TMP DP  RH WIND       PRES   REMARKS
CARROLL *      CLOUDY    34  30  86 NW22G29   30.19R WCI  22
CHEROKEE *     CLOUDY    32  28  86 N21G32    30.24R WCI  20
DENISON *      CLOUDY    34  28  80 N21G30    30.21R WCI  22
LE MARS *      CLOUDY    32  27  80 N20G29    30.29R WCI  20
ORANGE CITY *  CLOUDY    32  27  80 N21G30    30.26R WCI  20
SHELDON *      CLOUDY    30  28  93 N23G33    30.24R WCI  17
SIOUX CITY     CLOUDY    34  27  75 N28G38    30.27R WCI  21
SPENCER        CLOUDY    31  25  78 NW28G36   30.21R WCI  17
STORM LAKE *   CLOUDY    32  28  86 N25G33    30.21R WCI  19
$$

IAZ055>058-069>071-079>083-090>094-291500-
   SOUTHWEST IOWA

CITY           SKY/WX    TMP DP  RH WIND       PRES   REMARKS
ATLANTIC *     CLOUDY    36  28  75 N20G28    30.21R WCI  25
AUDUBON *      CLOUDY    34  28  80 NW18G26   30.20R WCI  23
CLARINDA *     CLOUDY    36  28  75 NW25G33   30.24R WCI  23
COUNCIL BLFS * CLOUDY    34  28  80 N21G31    30.25R WCI  22
CRESTON *      CLOUDY    34  32  93 NW29      30.17R WCI  20
HARLAN  *      CLOUDY    34  32  93 N26G36    30.25R WCI  21
LAMONI         CLOUDY    35  30  82 NW20G28   30.15R WCI  24
RED OAK *      CLOUDY    36  28  75 NW16G25   30.24R WCI  26
SHENANDOAH *   CLOUDY    37  28  70 N18G30    30.27R WCI  27
$$

IAZ047>049-059>061-072>074-084-291500-
   CENTRAL IOWA

CITY           SKY/WX    TMP DP  RH WIND       PRES   REMARKS
AMES           CLOUDY    33  29  85 NW23G33   30.13R WCI  21
ANKENY *       MIX PCPN  34  32  93 NW21G30   30.14R WCI  22
CHARITON *     CLOUDY    36  30  80 NW21G28   30.12R WCI  24
DES MOINES     DRIZZLE   35  30  82 N20G29    30.14R WCI  24
GRINNELL*      CLOUDY    34  32  93 NW22G33   30.08R WCI  22
KNOXVILLE *    CLOUDY    34  30  86 NW17G26   30.10R WCI  23
MARSHALLTOWN   CLOUDY    33  30  88 NW22G36   30.07R WCI  21
PELLA *        MOCLDY    34  32  93 NW24G35   30.11R WCI  21
PERRY *          N/A     34  30  86 NW26G32   30.17R WCI  21
$$

IAZ004>006-015-016-023>025-035-036-291500-
   NORTH CENTRAL IOWA

CITY           SKY/WX    TMP DP  RH WIND       PRES   REMARKS
ALGONA *       CLOUDY    30  28  93 N24G40    30.16R WCI  16
CLARION *      MIX PCPN  32  30  93 N29G45    30.12R WCI  18
ESTHERVILLE    CLOUDY    29  25  85 NW28G41   30.18R WCI  14
FORT DODGE *   CLOUDY    32  25  74 N18G29    30.16R WCI  20
MASON CITY     CLOUDY    30  26  85 NW30      30.10R WCI  15
FOREST CITY *  CLOUDY    32  28  86 NW22G33   30.11R WCI  19
IOWA FALLS *   CLOUDY    32  28  86 NW25G33   30.10R WCI  19
$$

IAZ007>011-017>019-026>030-037>042-050>054-066-291500-
   NORTHEAST IOWA

CITY           SKY/WX    TMP DP  RH WIND       PRES   REMARKS
CEDAR RAPIDS   CLOUDY    34  32  92 NW21G30   30.00R WCI  22
CHARLES CITY * CLOUDY    32  32 100 NW24G37   30.05R WCI  19
CLINTON *      CLOUDY    34  27  75 NW18G29   29.97R WCI  23
DECORAH *      CLOUDY    32  32 100 N18G28    29.98R WCI  20
DUBUQUE        CLOUDY    32  27  81 NW16G28   29.94R HAZE    WCI  21
MONTICELLO *   CLOUDY    34  32  93 NW16G23   29.97R WCI  23
OELWEIN *      MIX PCPN  34  32  93 NW21G26   30.01R WCI  22
WATERLOO       LGT RAIN  34  32  92 NW15G23   30.03R FOG     WCI  24
$$

IAZ064-065-067-068-078-291500-
   EAST CENTRAL IOWA

CITY           SKY/WX    TMP DP  RH WIND       PRES   REMARKS
DAVENPORT      CLOUDY    33  27  78 NW21      29.95R WCI  21
IOWA CITY      CLOUDY    35  31  85 NW13      30.03R WCI  26
MT. PLEASANT * CLOUDY    36  30  80 NW17G23   30.03R WCI  25
MUSCATINE *    CLOUDY    36  30  80 NW18      30.02R WCI  25
QUAD CITIES    CLOUDY    35  29  78 NW16G23   29.95R WCI  25
$$

IAZ062-063-075>077-085>089-095>099-291500-
   SOUTHEAST IOWA

CITY           SKY/WX    TMP DP  RH WIND       PRES   REMARKS
BURLINGTON     CLOUDY    36  30  79 NW18      30.01R WCI  26
FAIRFIELD *    CLOUDY    36  32  87 NW17G25   30.05R WCI  25
FORT MADISON * CLOUDY    36  30  80 NW16G24   30.03R WCI  26
KEOKUK *       CLOUDY    37  30  75 NW18G28   30.03R WCI  27
OSKALOOSA *    CLOUDY    34  32  93 NW20G28   30.08R WCI  22
CENTERVILLE *  CLOUDY    36  32  87 NW17G25   30.11R WCI  25
OTTUMWA        CLOUDY    35  31  85 NW20G31   30.07R WCI  24
WASHINGTON *   CLOUDY    36  36 100 NW17G28   30.03R WCI  25
$$

ABBREVIATIONS USED IN REMARKS
   TC - TEMPERATURES IN CELSIUS
  WCI - WIND CHILL INDEX
   HX - HEAT INDEX
  VSB - VISIBILITY
$$




USA.gov is the U.S. government's official web portal to all federal, state and local government web resources and services.